Regional Weather Roundup
Issued by NWS Columbia, SC

Home | Current Version | Previous Version | Text Only | Print | Product List | Glossary On
Versions: 1 2 3 4 5 6 7 8 9 10 11 12 13 14 15 16 17 18 19 20 21 22 23 24 25 26 27 28 29 30 31 32 33 34 35 36 37 38 39 40 41 42 43 44 45 46 47 48 49 50
000
ASUS42 KCAE 300510
RWRCAE
REGIONAL WEATHER ROUNDUP
NATIONAL WEATHER SERVICE COLUMBIA SC
100 AM EDT MON MAY 30 2016

NOTE: "FAIR" INDICATES FEW OR NO CLOUDS BELOW 12,000 FEET WITH NO
SIGNIFICANT WEATHER AND/OR OBSTRUCTIONS TO VISIBILITY.

NOT ALL STATIONS ARE QUALITY CONTROLLED BY THE NATIONAL
WEATHER SERVICE. USE DATA WITH CAUTION...ESPECIALLY
DEWPOINT OBSERVATIONS.

SCZ001>056-GAZ040-063>065-077-300600-
...UPSTATE SOUTH CAROLINA...

CITY           SKY/WX    TMP DP  RH WIND       PRES   REMARKS
ANDERSON       CLOUDY    65  62  90 NE3       30.05S
LIBERTY        CLOUDY    63  62  97 CALM      30.05F
SPARTANBURG    CLOUDY    68  57  68 NE6       30.05S
CLEMSON        PTCLDY    69  64  84 CALM      30.06F
GREENVILLE     CLOUDY    66  58  75 NE6       30.06S
GREENWOOD      CLOUDY    66  59  78 N3        30.04F
GREER          CLOUDY    65  60  84 NE6       30.05S
ROCK HILL      CLOUDY    69  61  75 N10       30.05R
CHESTER        CLOUDY    68  61  77 N8        30.04S
LAURENS        CLOUDY    68  59  73 N7        30.04S


...CENTRAL SOUTH CAROLINA...

CITY           SKY/WX    TMP DP  RH WIND       PRES   REMARKS
COLUMBIA APT   CLOUDY    72  65  78 NW7       29.98S
COLUMBIA OWENS MOCLDY    70  65  84 VRB5      29.99S
MCENTIRE ANGB  CLOUDY    68  66  94 N7        29.97S
ORANGEBURG     LGT RAIN  70  68  93 N6        29.96S FOG
SUMTER SHAW    CLOUDY    69  67  93 N9        29.94S
NEWBERRY       CLOUDY    70  61  73 N12       30.06S
AIKEN          CLOUDY    70  61  73 N9        30.04S
BARNWELL       CLOUDY    72  72 100 NW6       29.99S
MANNING        CLOUDY    68  68 100 N3        29.95S
LANCASTER      MOCLDY    66  66 100 CALM      30.02S
WINNSBORO      CLOUDY    66  64  94 N7        30.01S


...EASTERN AND COASTAL SOUTH CAROLINA...

CITY           SKY/WX    TMP DP  RH WIND       PRES   REMARKS
MYRTLE BEACH   CLOUDY    73  64  73 SE13      29.98S
N MYRTLE BCH   CLOUDY    75  69  81 SE7       29.96F
CONWAY         CLOUDY    70  68  94 CALM      29.96S
MARION         CLOUDY    72  68  88 NE5       29.97F
HARTSVILLE     CLOUDY    66  64  94 N9        29.98S
FLORENCE       CLOUDY    72  69  90 NE8       29.97F
DARLINGTON     CLOUDY    70  69  97 N10       29.98S
CHARLESTON APT CLOUDY    71  67  87 N6        29.92F
MOUNT PLEASANT CLOUDY    70  70 100 CALM      29.91S FOG
BEAUFORT       LGT RAIN  70  68  93 W9        29.95F


...EASTERN GEORGIA...

CITY           SKY/WX    TMP DP  RH WIND       PRES   REMARKS
AUGUSTA BUSH F CLOUDY    72  61  68 N7        30.00S
AUGUSTA DANIEL LGT RAIN  72  60  66 N8        30.01F
THOMSON        CLEAR     64  64 100 CALM      30.07F
WASHINGTON     FAIR      68  64  88 CALM      30.03F
CLAXTON        FAIR      71  65  83 CALM      30.00S
SYLVANIA       CLOUDY    71  67  86 NW3       30.00S
STATESBORO     RAIN      70  66  87 N8        29.99F
SAVANNAH       CLOUDY    70  63  78 W7        29.98S


...SOUTHERN NORTH CAROLINA...

CITY           SKY/WX    TMP DP  RH WIND       PRES   REMARKS
CHARLOTTE      CLOUDY    67  59  75 N8        30.05R
MONROE         CLOUDY    66  59  78 N7        30.02S
WADESBORO      CLOUDY    66  62  85 N3        30.01F
ROCKINGHAM     CLOUDY    66  65  96 NE7       30.00S
RUTHERFORDTON  PTCLDY    63  63  99 NW3       30.08S
ASHEVILLE      CLOUDY    63  59  87 CALM      30.12S

$$



USA.gov is the U.S. government's official web portal to all federal, state and local government web resources and services.